OK1FET-5 Weather Reports


Display with metric or nautical units.
time (UTC)temp
F
wind
direction
speed
MPH
gust
MPH
rain 1hr
in
rain 24hr
in
rain mn
in
humidity
%
barometer
mb
20260504014532 58 125 3.0 4.0 0.00 0.00 0.00 43 1013.7
20260504014038 58 116 3.0 4.0 0.00 0.00 0.00 42 1013.7
20260504013544 58 94 3.0 4.0 0.00 0.00 0.00 42 1013.7
20260504013049 58 84 4.0 4.0 0.00 0.00 0.00 41 1013.7
20260504012555 58 90 4.0 5.0 0.00 0.00 0.00 40 1013.6
20260504012100 58 80 4.0 5.0 0.00 0.00 0.00 40 1013.6
20260504011606 58 63 3.0 4.0 0.00 0.00 0.00 41 1013.7
20260504011111 58 52 4.0 5.0 0.00 0.00 0.00 41 1013.6
20260504010617 58 77 5.0 5.0 0.00 0.00 0.00 40 1013.6
20260504010122 59 71 5.0 5.0 0.00 0.00 0.00 41 1013.7
20260504005628 59 83 5.0 7.0 0.00 0.00 0.00 40 1013.6
20260504005134 59 80 5.0 7.0 0.00 0.00 0.00 40 1013.5
20260504004639 59 90 6.0 8.0 0.00 0.00 0.00 42 1013.5
20260504004145 59 86 5.0 7.0 0.00 0.00 0.00 41 1013.5
20260504003650 59 87 6.0 7.0 0.00 0.00 0.00 41 1013.5
20260504003156 59 63 5.0 6.0 0.00 0.00 0.00 40 1013.7
20260504002701 59 63 4.0 5.0 0.00 0.00 0.00 40 1013.6
20260504002207 59 57 4.0 5.0 0.00 0.00 0.00 40 1013.6
20260504001712 59 46 4.0 5.0 0.00 0.00 0.00 40 1013.7
20260504001218 59 33 3.0 4.0 0.00 0.00 0.00 40 1013.6
20260504000723 59 49 4.0 5.0 0.00 0.00 0.00 40 1013.6
20260504000229 59 46 4.0 5.0 0.00 0.00 0.00 40 1013.5
20260503235240 60 68 4.0 5.0 0.00 0.00 0.00 39 1013.4
20260503234746 60 68 4.0 6.0 0.00 0.00 0.00 40 1013.4
20260503234252 60 47 4.0 5.0 0.00 0.00 0.00 39 1013.4
20260503233756 60 51 4.0 6.0 0.00 0.00 0.00 39 1013.4
20260503233302 60 44 4.0 5.0 0.00 0.00 0.00 39 1013.5
20260503232807 60 56 4.0 5.0 0.00 0.00 0.00 39 1013.4
20260503232313 61 41 4.0 6.0 0.00 0.00 0.00 39 1013.4
20260503231818 61 42 4.0 5.0 0.00 0.00 0.00 39 1013.4
20260503231323 61 57 5.0 7.0 0.00 0.00 0.00 38 1013.4
20260503230829 62 80 6.0 8.0 0.00 0.00 0.00 38 1013.3
20260503230335 62 75 5.0 8.0 0.00 0.00 0.00 39 1013.3
20260503225840 62 74 6.0 8.0 0.00 0.00 0.00 39 1013.3
20260503225345 62 85 6.0 10.0 0.00 0.00 0.00 39 1013.2
20260503224850 62 87 7.0 8.0 0.00 0.00 0.00 40 1013.1
20260503224356 62 90 7.0 9.0 0.00 0.00 0.00 42 1013.0
20260503223901 62 93 8.0 10.0 0.00 0.00 0.00 42 1012.9
20260503223407 62 93 7.0 9.0 0.00 0.00 0.00 43 1012.8
20260503222912 62 102 8.0 11.0 0.00 0.00 0.00 43 1012.8
20260503222417 62 93 8.0 10.0 0.00 0.00 0.00 42 1012.8
20260503221923 62 99 8.0 10.0 0.00 0.00 0.00 42 1012.7
20260503221428 63 96 9.0 10.0 0.00 0.00 0.00 42 1012.8
20260503220933 63 96 8.0 11.0 0.00 0.00 0.00 42 1012.6
20260503220439 63 90 7.0 8.0 0.00 0.00 0.00 41 1012.8
20260503215944 63 96 7.0 9.0 0.00 0.00 0.00 41 1012.8
20260503214955 63 93 7.0 9.0 0.00 0.00 0.00 40 1012.7
20260503214500 63 96 8.0 10.0 0.00 0.00 0.00 40 1012.8
20260503214005 64 106 8.0 9.0 0.00 0.00 0.00 40 1012.8
20260503213511 64 105 7.0 9.0 0.00 0.00 0.00 40 1012.8
20260503213016 64 103 6.0 7.0 0.00 0.00 0.00 40 1012.8
20260503212521 64 108 6.0 8.0 0.00 0.00 0.00 40 1012.8
20260503212026 64 100 6.0 8.0 0.00 0.00 0.00 39 1012.8
20260503211532 64 109 6.0 7.0 0.00 0.00 0.00 39 1012.8
20260503211037 64 105 6.0 7.0 0.00 0.00 0.00 39 1012.8
20260503210542 64 106 6.0 8.0 0.00 0.00 0.00 39 1012.9
20260503205553 65 116 5.0 7.0 0.00 0.00 0.00 38 1012.8
20260503205058 65 109 6.0 7.0 0.00 0.00 0.00 38 1012.8
20260503204603 65 119 6.0 8.0 0.00 0.00 0.00 38 1012.8
20260503204109 65 120 7.0 9.0 0.00 0.00 0.00 38 1012.9
20260503203614 65 117 6.0 8.0 0.00 0.00 0.00 37 1012.9
20260503203119 65 132 6.0 7.0 0.00 0.00 0.00 37 1012.9
20260503202624 65 117 5.0 6.0 0.00 0.00 0.00 36 1012.9
20260503202129 66 129 6.0 7.0 0.00 0.00 0.00 36 1013.0
20260503201140 66 134 5.0 6.0 0.00 0.00 0.00 35 1013.0
20260503200645 66 129 5.0 6.0 0.00 0.00 0.00 35 1013.0
20260503200151 66 123 5.0 7.0 0.00 0.00 0.00 34 1013.1
20260503195655 66 135 5.0 7.0 0.00 0.00 0.00 34 1013.1
20260503194706 67 135 5.0 7.0 0.00 0.00 0.00 33 1013.0
20260503194211 67 135 5.0 6.0 0.00 0.00 0.00 33 1012.9
20260503193716 67 138 5.0 7.0 0.00 0.00 0.00 32 1013.0
20260503193221 68 142 4.0 6.0 0.00 0.00 0.00 32 1012.9
20260503192726 68 135 5.0 7.0 0.00 0.00 0.00 31 1012.9
20260503192231 68 146 4.0 6.0 0.00 0.00 0.00 31 1012.8
20260503191737 69 132 5.0 6.0 0.00 0.00 0.00 31 1012.8
20260503191242 69 129 5.0 7.0 0.00 0.00 0.00 31 1012.8
20260503190747 69 120 5.0 7.0 0.00 0.00 0.00 30 1012.8
20260503190252 70 123 6.0 8.0 0.00 0.00 0.00 30 1012.7
20260503185757 70 117 5.0 7.0 0.00 0.00 0.00 29 1012.6
20260503185304 70 123 5.0 6.0 0.00 0.00 0.00 29 1012.6
20260503184807 70 132 5.0 6.0 0.00 0.00 0.00 29 1012.6
20260503184312 70 135 4.0 5.0 0.00 0.00 0.00 28 1012.6
20260503183322 71 122 5.0 6.0 0.00 0.00 0.00 28 1012.5
20260503182827 71 123 5.0 6.0 0.00 0.00 0.00 28 1012.4
20260503182332 72 125 5.0 6.0 0.00 0.00 0.00 28 1012.3
20260503181837 72 122 6.0 7.0 0.00 0.00 0.00 28 1012.3
20260503181342 72 121 7.0 9.0 0.00 0.00 0.00 28 1012.3
20260503180352 73 132 7.0 8.0 0.00 0.00 0.00 27 1012.2
20260503175857 73 129 7.0 10.0 0.00 0.00 0.00 27 1012.2
20260503175401 73 126 8.0 10.0 0.00 0.00 0.00 27 1012.1
20260503174906 74 117 7.0 9.0 0.00 0.00 0.00 27 1012.1
20260503174411 74 117 7.0 10.0 0.00 0.00 0.00 27 1012.2
20260503173421 74 128 5.0 7.0 0.00 0.00 0.00 26 1012.1
20260503172925 75 122 6.0 8.0 0.00 0.00 0.00 26 1012.0
20260503172430 75 108 8.0 10.0 0.00 0.00 0.00 26 1012.0
20260503171935 76 100 7.0 9.0 0.00 0.00 0.00 26 1012.1
20260503171440 76 125 7.0 10.0 0.00 0.00 0.00 25 1012.0
20260503170944 76 116 8.0 11.0 0.00 0.00 0.00 25 1012.0
20260503170449 77 117 7.0 9.0 0.00 0.00 0.00 25 1012.0
20260503150635 81 129 6.0 7.0 0.00 0.00 0.00 21 1012.7
20260503150140 81 132 6.0 8.0 0.00 0.00 0.00 21 1012.9
20260503140230 81 139 6.0 7.0 0.00 0.00 0.00 22 1013.8
20260503131312 83 170 7.0 10.0 0.00 0.00 0.00 22 1014.7
20260503130815 83 162 6.0 8.0 0.00 0.00 0.00 24 1014.7
20260503130319 83 132 5.0 7.0 0.00 0.00 0.00 24 1014.7
20260503110459 80 140 6.0 11.0 0.00 0.00 0.00 27 1016.1
20260503090150 73 134 7.0 10.0 0.00 0.00 0.00 32 1017.5
20260503081238 69 122 7.0 9.0 0.00 0.00 0.00 34 1018.0
20260503080247 69 115 7.0 9.0 0.00 0.00 0.00 36 1018.0
20260503072822 66 138 5.0 6.0 0.00 0.00 0.00 39 1018.1
20260503072327 65 135 5.0 8.0 0.00 0.00 0.00 39 1018.1
20260503071832 64 138 6.0 7.0 0.00 0.00 0.00 40 1018.1
20260503071338 64 135 6.0 7.0 0.00 0.00 0.00 40 1018.1
20260503070843 64 132 5.0 7.0 0.00 0.00 0.00 39 1018.1
20260503055009 58 128 3.0 4.0 0.00 0.00 0.00 37 1018.1
20260503054514 58 120 3.0 5.0 0.00 0.00 0.00 37 1018.2
20260503054020 58 135 3.0 4.0 0.00 0.00 0.00 37 1018.1
20260503053525 58 109 3.0 4.0 0.00 0.00 0.00 37 1018.1
20260503053031 58 132 3.0 4.0 0.00 0.00 0.00 37 1018.2
20260503052042 57 87 3.0 4.0 0.00 0.00 0.00 36 1018.2
20260503051548 57 84 3.0 5.0 0.00 0.00 0.00 36 1018.2
20260503051053 56 104 3.0 5.0 0.00 0.00 0.00 36 1018.2
20260503050559 56 123 3.0 4.0 0.00 0.00 0.00 37 1018.2
20260503050105 56 129 3.0 5.0 0.00 0.00 0.00 37 1018.1
20260503045610 55 150 3.0 5.0 0.00 0.00 0.00 37 1018.1
20260503045116 56 164 3.0 4.0 0.00 0.00 0.00 37 1018.1
20260503044622 56 171 2.0 3.0 0.00 0.00 0.00 36 1018.1
20260503044127 55 180 1.0 2.0 0.00 0.00 0.00 36 1018.1
20260503043139 54 144 2.0 3.0 0.00 0.00 0.00 37 1018.1
20260503042644 54 148 2.0 2.0 0.00 0.00 0.00 36 1018.0
20260503042150 54 122 2.0 3.0 0.00 0.00 0.00 36 1018.1
20260503041656 54 90 3.0 3.0 0.00 0.00 0.00 36 1018.1
20260503041202 53 84 3.0 3.0 0.00 0.00 0.00 36 1018.1
20260503040708 53 90 3.0 4.0 0.00 0.00 0.00 36 1018.1
20260503040213 52 87 4.0 5.0 0.00 0.00 0.00 37 1018.1
20260503035719 52 84 5.0 6.0 0.00 0.00 0.00 37 1018.0
20260503035225 52 72 5.0 6.0 0.00 0.00 0.00 37 1018.0
20260503034731 51 81 5.0 7.0 0.00 0.00 0.00 38 1018.0
20260503034237 51 78 5.0 7.0 0.00 0.00 0.00 38 1018.0
20260503033743 50 90 5.0 7.0 0.00 0.00 0.00 39 1018.0
20260503033249 50 77 5.0 7.0 0.00 0.00 0.00 38 1018.0
20260503032755 51 72 5.0 6.0 0.00 0.00 0.00 38 1018.1
20260503032301 51 83 4.0 5.0 0.00 0.00 0.00 38 1018.0
20260503031806 51 87 5.0 5.0 0.00 0.00 0.00 39 1018.0
20260503031312 51 87 5.0 6.0 0.00 0.00 0.00 39 1018.0
20260503030818 51 94 5.0 6.0 0.00 0.00 0.00 40 1018.0
20260503030324 51 94 4.0 5.0 0.00 0.00 0.00 39 1018.0
20260503025830 52 87 4.0 5.0 0.00 0.00 0.00 39 1018.0
20260503025336 52 93 4.0 6.0 0.00 0.00 0.00 38 1018.0
20260503024841 52 87 4.0 5.0 0.00 0.00 0.00 37 1017.9
20260503024347 52 72 4.0 5.0 0.00 0.00 0.00 37 1018.0
20260503023853 52 81 4.0 5.0 0.00 0.00 0.00 37 1017.9
20260503023359 52 61 5.0 5.0 0.00 0.00 0.00 38 1017.9
20260503022904 52 54 4.0 6.0 0.00 0.00 0.00 38 1017.9
20260503022410 52 36 4.0 4.0 0.00 0.00 0.00 38 1017.9
20260503021916 52 38 4.0 5.0 0.00 0.00 0.00 37 1017.9
20260503021422 52 39 4.0 5.0 0.00 0.00 0.00 37 1017.9
20260503020927 52 52 3.0 4.0 0.00 0.00 0.00 37 1017.9
20260503020433 52 78 3.0 3.0 0.00 0.00 0.00 36 1017.9
20260503015939 53 87 3.0 3.0 0.00 0.00 0.00 35 1017.9
20260503015445 53 77 3.0 4.0 0.00 0.00 0.00 35 1017.9
20260503014951 52 81 3.0 4.0 0.00 0.00 0.00 36 1017.9